This is the latest recevied weather packets stored in our database for station/object JH0KSP-13. If no packets are shown the sender has not sent any weather packets the latest 10 day(s).
| Time | Temp. | Humidity | Pressure | Rain* | Wind** | Luminosity | Snow |
|---|---|---|---|---|---|---|---|
| 1778107615 | 15° C | 100% | 1016.1 hPa | 0 mm | - | - | - |
| 1778106416 | 13.89° C | 100% | 1016.5 hPa | 0 mm | - | - | - |
| 1778105217 | 12.78° C | 100% | 1016.6 hPa | 0 mm | - | - | - |
| 1778104017 | 12.78° C | 100% | 1016.7 hPa | 0 mm | - | - | - |
| 1778102816 | 12.22° C | 100% | 1016.9 hPa | 0 mm | - | - | - |
| 1778101616 | 12.22° C | 100% | 1017 hPa | 0 mm | - | - | - |
| 1778100417 | 12.22° C | 100% | 1016.8 hPa | 0 mm | - | - | - |
| 1778099217 | 12.22° C | 100% | 1016.8 hPa | 0 mm | - | - | - |
| 1778098015 | 12.22° C | 100% | 1016.7 hPa | 0 mm | - | - | - |
| 1778097608 | 12.22° C | 100% | 1016.8 hPa | 0 mm | - | - | - |
| 1778096815 | 12.22° C | 100% | 1016.8 hPa | 0 mm | - | - | - |
| 1778095616 | 12.22° C | 100% | 1016.9 hPa | 0 mm | - | - | - |
| 1778094417 | 12.22° C | 100% | 1017 hPa | 0 mm | - | - | - |
| 1778093217 | 12.22° C | 100% | 1017.1 hPa | 0 mm | - | - | - |
| 1778092016 | 12.22° C | 100% | 1017.1 hPa | 0 mm | - | - | - |
| 1778091609 | 12.22° C | 100% | 1017.2 hPa | 0 mm | - | - | - |
| 1778090817 | 12.78° C | 100% | 1017.4 hPa | 0 mm | - | - | - |
| 1778089615 | 12.78° C | 100% | 1017.5 hPa | 0 mm | - | - | - |
| 1778088416 | 12.78° C | 100% | 1017.5 hPa | 0 mm | - | - | - |
| 1778087216 | 12.78° C | 100% | 1017.7 hPa | 0 mm | - | - | - |
| 1778086017 | 13.89° C | 100% | 1017.7 hPa | 0 mm | - | - | - |
| 1778085608 | 13.89° C | 100% | 1017.7 hPa | 0 mm | - | - | - |
| 1778084816 | 13.89° C | 100% | 1018 hPa | 0 mm | - | - | - |
| 1778083617 | 13.89° C | 100% | 1018.2 hPa | 0 mm | - | - | - |
| 1778082415 | 13.89° C | 99% | 1018.2 hPa | 0 mm | - | - | - |
* Rain latest hour (hover to see other rain measurements)
** Current wind speed in m/s (hover to see current wind gust speed)